Flag for Mexico Weather past 2 weeks in Playa del Carmen, Quintana Roo, Mexico

Now
79 °F

Cloudy.


Feels Like: 83 °F
Forecast: N/A
Wind: No wind

Location: Cozumel Civ / Mil

Current Time: Aug 31, 2015 at 6:54:47 PM

Latest Report: Aug 31, 2015 at 5:44 PM


Visibility: 7 mi

Pressure: 29.95 "Hg

Humidity: 94%

Dew point: 77 °F

Location of Playa del CarmenLocation

Historic Weather in Playa del Carmen — Graph

°F

Playa del Carmen temperature yesterday

Maximum temperature yesterday: 86 °F (at 11:46 AM)
Minimum temperature yesterday: 73 °F (at 10:50 PM)
Average temperature yesterday: 79 °F

Past Weeks' High & Low Weather Summary

 TemperatureHumidityPressure
High88 °F (Aug 17, 12:42 PM)100% (Aug 16, 8:42 PM)30.05 "Hg (Aug 16, 8:42 PM)
Low70 °F (Aug 26, 3:45 AM)55% (Aug 29, 2:47 PM)29.83 "Hg (Aug 25, 3:42 AM)
Average78 °F91%29.95 "Hg
* Reported Aug 16 8:42 PM — Aug 31 5:44 PM, Playa del Carmen, Weather by CustomWeather, © 2015

Note: Actual official high and low records may vary slightly from our data, if they occured in-between our weather recording intervals... More about our weather records

Advertising

Playa del Carmen weather history for previous 24 hours

 ConditionsComfort  
Time TempWeatherWind HumidityBarometerVisibility
5:44 PM
Mon, Aug 31
79 °FCloudy.No wind94%29.95 "Hg7 mi
1:50 PM73 °FMostly cloudy.5 mph100%30.00 "Hg7 mi
12:50 PM72 °FMostly cloudy.No wind100%30.01 "Hg7 mi
11:49 AM72 °FRain. Mostly cloudy.8 mph100%30.04 "Hg2 mi
11:15 AM72 °FSleet. Cloudy.N/A100%30.05 "HgN/A
10:47 AM72 °FLight rain. Mostly cloudy.3 mph100%30.02 "Hg4 mi
9:47 AM75 °FRain. Partly sunny.5 mph100%30.02 "Hg3 mi
8:44 AM75 °FLight rain. Broken clouds.5 mph94%29.97 "Hg6 mi
7:46 AM75 °FBroken clouds.9 mph100%29.97 "Hg7 mi
6:44 AM73 °FPartly cloudy.No wind100%29.92 "Hg7 mi
5:41 AM75 °FPassing clouds.No wind100%29.92 "Hg7 mi
4:41 AM75 °FPassing clouds.No wind100%29.92 "Hg7 mi
3:43 AM73 °FPassing clouds.No wind100%29.94 "Hg7 mi
2:45 AM73 °FPassing clouds.No wind100%29.93 "Hg7 mi
12:50 AM73 °FPassing clouds.No wind100%29.92 "Hg7 mi
10:50 PM
Sun, Aug 30
73 °FPassing clouds.No wind100%29.96 "Hg7 mi
9:47 PM75 °FPassing clouds.No wind100%29.96 "Hg7 mi
8:45 PM75 °FPassing clouds.No wind100%29.94 "Hg7 mi
6:45 PM77 °FBroken clouds.No wind100%29.88 "Hg8 mi
Weather by CustomWeather, © 2015

See weather overviewHow to use our weather pages